TimePST,TemperatureF,Dew PointF,Humidity,Sea Level PressureIn,VisibilityMPH,Wind Direction,Wind SpeedMPH,Gust SpeedMPH,PrecipitationIn,Events,Conditions,WindDirDegrees,DateUTC
12:52 AM,46.0,35.1,66,30.25,10.0,Calm,Calm,-,N/A,,Clear,0,2013-01-05 08:52:00
1:52 AM,44.1,34.0,68,30.24,10.0,Calm,Calm,-,N/A,,Clear,0,2013-01-05 09:52:00
2:52 AM,43.0,32.0,65,30.25,10.0,Calm,Calm,-,N/A,,Clear,0,2013-01-05 10:52:00
3:52 AM,44.1,28.9,55,30.24,10.0,East,3.5,-,N/A,,Clear,90,2013-01-05 11:52:00
4:52 AM,44.1,27.0,51,30.25,10.0,Calm,Calm,-,N/A,,Clear,0,2013-01-05 12:52:00
5:52 AM,44.1,27.0,51,30.25,10.0,Calm,Calm,-,N/A,,Clear,0,2013-01-05 13:52:00
6:52 AM,44.1,28.0,53,30.26,10.0,NE,3.5,-,N/A,,Clear,40,2013-01-05 14:52:00
7:52 AM,46.0,33.1,61,30.28,10.0,Calm,Calm,-,N/A,,Partly Cloudy,0,2013-01-05 15:52:00
8:52 AM,53.1,33.1,47,30.29,10.0,Calm,Calm,-,N/A,,Partly Cloudy,0,2013-01-05 16:52:00
9:52 AM,57.0,30.9,37,30.29,10.0,Calm,Calm,-,N/A,,Partly Cloudy,0,2013-01-05 17:52:00
10:52 AM,62.1,26.1,25,30.26,10.0,Calm,Calm,-,N/A,,Partly Cloudy,0,2013-01-05 18:52:00
11:52 AM,63.0,33.1,33,30.23,10.0,WSW,5.8,-,N/A,,Partly Cloudy,240,2013-01-05 19:52:00
12:52 PM,63.0,30.9,30,30.21,10.0,WNW,8.1,-,N/A,,Scattered Clouds,300,2013-01-05 20:52:00
1:52 PM,63.0,39.0,41,30.19,10.0,NW,6.9,-,N/A,,Scattered Clouds,320,2013-01-05 21:52:00
2:52 PM,62.1,37.0,39,30.19,10.0,NW,10.4,-,N/A,,Scattered Clouds,320,2013-01-05 22:52:00
3:52 PM,61.0,43.0,52,30.19,9.0,NW,10.4,-,N/A,,Scattered Clouds,320,2013-01-05 23:52:00
4:52 PM,57.9,44.1,60,30.19,10.0,NW,9.2,-,N/A,,Scattered Clouds,320,2013-01-06 00:52:00
5:06 PM,-9999,-9999,N/A,-9999,-9999.0,North,-9999.0,-,N/A,,Unknown,0,2013-01-06 01:06:00
5:52 PM,57.0,43.0,59,30.20,10.0,NNW,4.6,-,N/A,,Scattered Clouds,330,2013-01-06 01:52:00
6:52 PM,54.0,43.0,66,30.19,10.0,ENE,3.5,-,N/A,,Mostly Cloudy,60,2013-01-06 02:52:00
7:00 PM,-9999,-9999,N/A,-9999,-9999.0,North,-9999.0,-,N/A,,Unknown,0,2013-01-06 03:00:00
7:52 PM,52.0,43.0,71,30.20,10.0,West,3.5,-,N/A,,Mostly Cloudy,260,2013-01-06 03:52:00
8:52 PM,51.1,43.0,74,30.22,10.0,Calm,Calm,-,N/A,,Mostly Cloudy,0,2013-01-06 04:52:00
9:52 PM,52.0,44.1,74,30.23,10.0,Calm,Calm,-,N/A,,Mostly Cloudy,0,2013-01-06 05:52:00
10:52 PM,50.0,43.0,77,30.22,9.0,East,5.8,-,N/A,,Mostly Cloudy,90,2013-01-06 06:52:00
11:52 PM,48.9,43.0,80,30.22,8.0,Calm,Calm,-,N/A,,Mostly Cloudy,0,2013-01-06 07:52:00